#timestamp,LO_Frequency,Hit,StdDev 
1561075215.9,286047003.8,P
1561075235.7,286047004.0,N
1561075255.5,286047003.6,N
1561075275.4,286047003.9,N
1561075295.2,286047004.4,Y
1561075315.0,286046999.3,P
1561075315.9,286046999.3,N
1561075335.8,286046999.4,N
1561075355.6,286046999.6,N
1561075375.4,286046996.9,N
1561075395.3,286046997.1,N
1561075415.1,286046997.9,N
1561075416.0,286046997.9,N
1561075435.8,286046995.6,N
1561075455.7,286046998.0,N
1561075475.5,286046995.1,N
1561075495.3,286046995.0,N
1561075515.2,286046995.1,N
1561075535.9,286046997.5,N
1561075555.7,286046994.9,N
1561075575.6,286046996.8,N
1561075595.4,286046999.5,N
1561075645.3,286046996.7,E
1561075655.2,286047000.9,N
1561075675.0,286047002.0,P
1561075675.9,286047002.0,P
1561075695.7,286047002.1,Y
1561075715.6,286046998.4,P
1561075735.4,286046998.2,N
1561075755.2,286046998.1,N
1561075775.1,286046999.8,N
1561075776.0,286046999.8,N
1561075795.8,286047000.1,N
1561075815.6,286047000.7,N
1561075835.5,286046999.9,N
1561075855.3,286047000.4,N
1561075875.1,286047002.5,N
1561075895.9,286047002.1,N
1561075915.7,286046999.9,N
1561075935.5,286047000.7,N
1561075955.4,286046998.4,N
1561075975.2,286047001.2,N
1561075995.0,286046998.5,N
1561075995.9,286046998.5,N
1561076015.8,286047001.0,N
1561076035.6,286046998.6,N
1561076055.4,286047001.1,N
1561076075.3,286046998.6,N
1561076095.1,286046998.3,N
1561076115.8,286046998.7,N
1561076135.7,286046998.5,N
1561076155.5,286046998.1,N
1561076175.3,286046998.9,N
1561076195.2,286046999.5,N
1561076215.0,286046998.8,N
1561076215.9,286046998.8,N
1561076235.7,286046999.2,N
1561076255.6,286046998.3,N
1561076275.4,286046998.5,N
1561076295.2,286046999.2,N
1561076315.1,286047001.0,N
1561076316.0,286047001.0,N
1561076335.8,286046999.7,N
1561076355.6,286046999.8,N
1561076375.5,286047002.3,N
1561076395.3,286047000.5,N
1561076415.1,286047002.3,N
1561076435.9,286047000.3,N
1561076455.7,286047000.1,N
1561076475.5,286047000.2,N
1561076495.4,286047000.3,N
1561076515.2,286046999.7,N
1561076535.0,286047002.1,N
1561076535.9,286047002.1,N
1561076555.8,286047001.9,N
1561076575.6,286047002.2,N
1561076595.4,286047002.4,N
1561076615.3,286046999.7,N
1561076635.1,286047002.4,N
1561076655.8,286047002.6,N
1561076675.7,286047002.7,N
1561076695.5,286047002.2,N
1561076715.3,286046999.7,N
1561076735.2,286047002.3,N
1561076755.0,286047002.4,N
1561076755.9,286047002.4,N
1561076775.7,286046999.7,N
1561076795.6,286046999.7,N
1561076815.4,286047002.5,N
1561076835.2,286047002.1,N
1561076855.1,286047001.3,N
1561076856.0,286047001.3,N
1561076875.8,286047002.5,N
1561076895.6,286047001.6,N
1561076915.5,286047001.4,N
1561076935.3,286047001.6,N
1561076955.2,286047004.4,Y
1561076975.9,286047002.1,P
1561076995.7,286047001.4,P
1561077015.6,286047003.9,P
1561077035.4,286047003.0,N
1561077055.2,286047004.3,Y
1561077075.1,286046998.7,P
1561077076.0,286046998.7,N
1561077095.8,286046998.7,N
1561077115.6,286047000.7,N
1561077135.5,286047000.4,N
1561077155.3,286047000.8,N
1561077175.1,286046999.8,N
1561077195.9,286047001.9,N
1561077215.7,286047001.6,N
1561077235.5,286047002.7,N
1561077255.4,286047001.8,N
1561077275.2,286047001.6,N
1561077295.0,286047002.0,N
1561077295.9,286047002.0,N
1561077315.8,286047000.5,N
1561077335.6,286047002.8,N
1561077355.4,286047000.0,N
1561077375.3,286047002.5,N
1561077395.1,286047000.1,N
1561077396.0,286047000.1,N
1561077415.8,286047000.1,N
1561077435.7,286047002.4,N
1561077455.5,286047000.5,N
1561077475.3,286047002.5,N
1561077495.2,286047002.0,N
1561077515.9,286047002.6,N
1561077535.7,286047002.6,N
1561077555.6,286047000.0,N
1561077575.4,286047002.7,N
1561077595.2,286047000.3,N
1561077615.1,286047002.8,N
1561077616.0,286047002.8,N
1561077635.8,286047000.0,N
1561077655.6,286047001.0,N
1561077675.5,286047000.9,N
1561077695.3,286046998.5,N
1561077715.1,286046998.6,N
1561077735.9,286046998.9,N
1561077755.7,286046998.5,N
1561077775.5,286046998.7,N
1561077795.4,286046998.5,N
1561077815.2,286046998.2,N
1561077835.0,286047000.7,N
1561077835.9,286047000.7,N
1561077855.8,286047000.4,N
1561077875.6,286047001.0,N
1561077895.4,286046998.1,N
1561077915.3,286047001.2,N
1561077935.1,286047001.1,N
1561077985.9,286047000.1,E
1561077995.8,286047000.5,N
1561078015.6,286047000.5,P
1561078035.5,286047000.5,P
1561078055.3,286047002.6,Y
1561078075.1,286047002.5,P
1561078095.9,286046998.5,N
1561078115.7,286047001.9,N
1561078135.5,286047002.1,N
1561078155.4,286047002.3,N
1561078175.2,286047002.2,N
1561078195.0,286047003.6,N
1561078195.9,286047003.6,N
1561078215.8,286047003.0,N
1561078235.6,286047006.1,Y
1561078255.4,286047007.5,P
1561078275.3,286047006.6,N
1561078295.1,286047007.1,N
1561078296.0,286047007.1,Y
1561078315.8,286047000.7,P
1561078335.7,286047001.0,N
1561078355.5,286047001.3,N
1561078375.3,286047002.2,N
1561078395.2,286047000.9,N
1561078415.9,286046998.9,N
1561078435.7,286046999.3,N
1561078455.6,286046997.5,N
1561078475.4,286046996.9,N
1561078495.2,286046997.8,N
1561078515.1,286046995.1,N
1561078516.0,286046995.1,N
1561078535.8,286046995.8,N
1561078555.6,286046994.9,N
1561078575.5,286046996.6,N
1561078595.3,286046996.5,N
1561078615.1,286046996.9,N
1561078635.9,286046993.3,N
1561078655.7,286046993.6,N
1561078675.5,286046994.5,N
1561078695.4,286046994.5,N
1561078715.2,286046992.4,N
1561078735.0,286046990.4,N
1561078735.9,286046990.4,N
1561078755.8,286046989.1,N
1561078775.6,286046990.6,N
1561078795.4,286046991.3,N
